Wind_Speed
28 19 18 27 38 29 24 27 23 18 23 23 22 22 31 28 25 19 23 22 34 33 31 30 26 21 19 18 18 16 14 14 12 10 10 11 13 11 9 7 7 7 7
25 19 16 18 29 30 25 25 28 30 20 22 24 30 29 26 23 22 21 26 40 31 25 23 20 20 18 17 14 10 10 8 9 9 9 12 12 11 11 10 7 7 8
20 25 19 19 21 25 27 26 25 26 22 19 22 20 20 20 19 19 22 30 30 24 21 20 16 14 14 12 10 9 9 7 7 9 13 15 14 12 13 12 12 12 14
15 20 24 18 16 22 24 27 23 25 22 22 18 20 17 17 18 20 21 23 22 21 21 19 17 13 14 9 7 7 8 5 9 12 15 12 13 12 12 14 14 16 16
9 14 19 22 15 21 23 25 24 25 23 20 21 18 17 16 15 18 17 18 16 16 14 17 15 11 14 9 8 7 9 12 13 16 12 12 13 14 15 17 19 19 19
4 8 13 16 18 11 17 19 19 18 21 22 18 16 16 15 14 14 13 12 13 12 14 17 15 12 11 10 10 11 12 12 11 12 13 14 16 15 17 19 21 21 23
6 3 7 11 14 16 9 7 12 12 15 13 13 13 13 13 14 14 13 15 13 11 11 13 13 12 11 12 14 14 17 17 18 20 17 15 16 18 21 21 23 25 26
8 5 1 4 8 10 13 13 9 10 10 11 11 11 11 11 11 8 14 13 11 11 9 8 10 12 14 14 14 16 15 15 15 14 15 16 19 23 23 25 26 28 30
8 10 6 2 1 3 6 10 10 9 11 13 11 7 6 7 9 11 12 12 11 10 9 7 8 10 12 16 13 11 13 13 13 15 16 18 20 23 25 28 31 33 36
9 12 11 8 5 2 1 2 4 8 9 10 11 11 11 12 10 7 8 8 9 10 9 13 15 11 16 13 9 12 10 11 12 15 18 21 24 27 30 33 36 39 40
12 12 14 13 10 8 7 4 4 3 2 4 6 7 8 8 8 8 9 7 6 6 7 7 6 5 7 9 8 11 13 16 18 20 23 27 30 32 35 37 39 41 44
15 15 16 16 15 13 11 9 9 7 7 6 6 4 3 2 2 2 4 4 5 5 7 8 8 8 11 12 14 18 21 23 25 28 31 34 36 38 39 39 40 42 44
19 17 18 18 18 17 16 15 13 13 11 10 10 10 9 8 8 8 8 9 9 10 11 13 14 15 17 18 20 24 27 30 32 33 34 35 37 39 40 41 42 43 43
21 19 20 19 20 19 19 18 16 16 16 15 15 14 12 12 12 11 11 12 12 12 14 16 19 21 23 23 23 25 27 30 32 34 36 37 39 40 41 41 42 43 44
21 20 19 20 22 22 21 19 17 16 18 20 20 19 18 16 16 16 16 17 18 19 19 19 19 20 22 25 27 29 31 34 36 37 38 39 40 40 42 43 43 44 45
23 23 21 22 25 26 25 23 21 19 18 18 19 21 20 17 17 17 18 19 20 21 22 22 23 25 28 29 30 31 33 35 37 38 40 40 39 41 41 42 44 47 48
27 26 22 24 25 25 28 28 26 23 20 20 21 21 19 18 16 15 16 17 19 21 23 26 28 29 29 31 34 36 38 39 39 39 38 39 40 42 45 47 49 50 52
29 30 26 25 26 25 24 24 24 23 23 23 21 20 20 22 22 20 19 20 22 23 25 27 27 29 33 37 40 41 40 39 38 38 38 41 44 46 48 50 54 54 53
31 31 31 30 31 30 28 27 25 26 24 22 23 23 24 24 24 23 23 23 24 24 25 27 31 33 34 36 37 39 40 43 41 41 42 45 48 50 53 54 54 54 54
35 35 33 33 32 30 30 29 29 29 27 27 28 27 27 26 25 24 24 24 24 25 28 29 30 32 34 36 39 41 42 43 41 42 44 47 49 52 55 57 56 55 57
38 38 35 35 34 34 34 32 34 36 34 31 29 28 28 27 26 25 24 26 28 28 28 30 32 33 34 36 37 38 40 42 44 47 51 52 55 57 59 55 52 56 59
42 42 39 38 40 39 39 38 34 35 36 34 32 31 29 28 27 27 29 30 29 28 30 31 32 34 35 37 39 42 45 44 48 52 54 55 56 55 54 54 56 59 59
45 44 42 40 41 40 40 39 36 36 36 35 34 32 30 30 31 32 32 31 30 31 31 32 33 35 37 40 43 45 46 48 50 52 53 56 56 54 53 55 58 59 56
46 43 44 43 42 41 40 39 38 38 37 34 33 32 32 34 34 33 32 32 32 33 33 34 36 38 42 44 47 49 51 51 52 54 56 57 55 55 56 57 58 55 48
42 44 44 45 43 42 40 40 40 38 37 34 35 36 37 36 35 34 34 35 36 35 34 36 40 43 44 45 46 50 53 54 53 54 55 55 56 57 57 57 54 48 42
42 42 44 46 44 41 40 41 40 38 36 36 39 39 37 37 37 38 39 40 36 34 36 40 42 44 45 47 48 52 54 53 53 53 55 56 57 57 58 54 47 42 38
Wind_Direction
3 13 353 19 28 37 55 61 80 89 114 132 148 162 131 131 123 130 129 145 146 140 141 140 148 149 152 159 167 173 177 195 192 196 218 243 265 252 245 222 234 239 238
0 13 9 359 14 41 58 69 91 91 121 137 131 126 128 124 123 127 141 143 159 148 144 141 138 149 150 157 165 172 179 191 209 228 261 276 261 252 234 222 244 252 257
359 9 13 7 32 51 59 83 83 96 112 119 120 125 121 123 129 134 138 150 155 157 154 160 154 153 159 174 190 200 199 213 242 269 283 282 257 253 241 243 246 254 259
355 5 13 24 34 63 69 91 104 101 117 126 137 152 161 149 141 148 141 159 177 182 179 169 172 176 169 177 198 224 206 229 272 296 291 273 253 249 242 249 252 262 267
356 2 9 22 45 74 77 92 101 105 115 111 124 145 148 147 149 158 155 146 150 170 180 185 186 193 197 218 232 250 247 259 282 295 284 272 263 253 246 252 262 267 272
335 6 3 21 35 64 86 80 87 121 125 123 133 136 140 124 120 133 158 171 181 182 199 205 205 207 212 236 259 265 258 270 280 292 283 265 265 258 250 254 262 270 269
279 0 7 9 30 44 61 81 96 106 118 120 133 142 138 138 149 135 131 137 153 156 166 189 200 214 236 250 260 266 270 277 287 287 275 269 265 250 252 264 269 274 282
267 246 337 13 15 38 52 65 82 133 139 137 144 150 150 168 182 164 158 152 156 161 171 197 222 235 244 256 262 278 276 267 266 258 261 258 259 262 268 273 279 285 289
252 250 227 217 9 15 57 64 74 94 105 106 115 135 165 183 168 172 168 179 183 201 226 248 252 242 243 255 264 259 268 273 271 275 273 276 275 276 278 280 284 287 292
234 247 235 221 218 241 311 119 103 103 107 102 101 102 99 98 103 171 191 191 199 210 228 263 274 260 262 235 228 266 274 276 275 277 279 280 279 281 282 285 288 291 295
230 239 244 230 227 224 224 228 222 211 144 111 109 106 106 104 113 114 118 144 178 199 206 219 251 245 246 253 268 275 278 282 282 282 283 284 286 290 293 296 299 300 299
231 238 237 236 231 233 237 238 237 240 241 233 226 222 216 196 193 185 174 185 201 218 236 251 262 271 271 277 278 281 284 289 294 300 303 304 303 302 302 302 301 299 300
228 233 235 228 231 232 232 237 248 243 243 248 249 249 249 254 257 260 262 264 265 265 268 272 278 283 289 293 297 304 307 305 304 302 300 299 299 300 300 300 299 299 299
226 227 238 235 229 231 236 242 252 260 251 248 247 248 254 259 262 267 274 277 281 288 291 295 298 299 301 301 299 298 297 296 295 296 297 298 297 296 296 296 296 295 297
226 224 232 238 230 233 235 241 252 255 262 264 262 261 262 268 276 282 284 283 281 279 280 281 282 284 286 287 289 292 295 298 298 298 296 296 296 297 299 300 301 303 304
224 224 223 231 231 230 232 232 238 241 245 249 255 256 258 258 261 265 268 273 275 274 272 273 277 283 289 292 295 296 298 300 300 300 299 298 299 302 304 305 306 307 306
224 227 220 229 236 238 236 236 237 237 241 245 247 248 246 248 251 257 261 264 267 274 281 289 293 296 298 299 302 303 303 302 301 302 303 305 307 309 309 310 309 309 309
222 229 225 226 235 239 245 246 247 251 253 249 246 240 241 244 251 257 265 274 280 284 288 294 300 304 305 302 300 302 304 304 303 304 306 309 311 312 312 311 310 310 310
222 225 229 228 232 234 239 241 244 248 251 249 244 248 252 257 262 267 275 279 285 291 294 296 295 297 299 302 306 308 306 304 302 303 306 311 312 311 312 310 309 309 309
225 227 231 234 237 238 238 239 244 245 246 244 245 248 253 257 264 272 277 282 283 283 286 291 298 302 305 307 309 308 305 304 306 310 309 311 314 314 312 313 311 309 309
224 229 229 235 239 242 244 244 244 249 251 250 251 252 254 260 262 267 274 274 276 282 289 295 299 300 301 302 301 304 305 306 305 309 312 313 313 312 310 309 308 309 311
227 228 230 235 239 242 246 246 247 248 252 253 252 253 254 256 264 267 265 269 275 282 288 292 295 297 300 303 306 306 304 301 306 308 308 309 308 308 308 309 312 315 315
236 237 234 234 238 242 247 249 249 251 249 249 252 253 254 259 263 263 268 273 280 286 288 289 294 299 302 304 303 302 302 304 305 308 310 310 309 309 311 314 316 317 318
236 241 243 236 234 237 242 246 247 249 249 250 253 255 257 261 263 267 271 277 281 281 282 286 294 298 300 302 304 305 305 305 306 308 310 309 309 312 316 317 318 320 318
243 242 244 241 237 239 239 242 244 246 246 247 249 252 257 260 265 270 274 277 277 277 285 291 294 297 299 301 305 304 304 305 306 309 310 310 313 316 316 318 319 317 311
241 241 241 240 238 239 239 241 243 242 242 245 249 253 257 262 266 270 273 274 275 280 285 288 292 296 299 301 303 303 303 306 307 309 311 313 313 314 316 318 316 310 307
Height
5679 5670 5664 5659 5650 5639 5632 5626 5623 5624 5624 5627 5631 5632 5636 5641 5643 5647 5650 5656 5661 5666 5670 5675 5679 5684 5688 5691 5695 5699 5702 5707 5708 5710 5712 5713 5714 5714 5715 5715 5716 5716 5715
5681 5674 5667 5663 5659 5651 5641 5637 5633 5635 5636 5636 5638 5640 5645 5648 5650 5653 5657 5660 5666 5672 5676 5680 5684 5687 5690 5694 5698 5701 5703 5707 5709 5709 5710 5710 5711 5712 5713 5713 5714 5715 5714
5682 5677 5671 5667 5664 5660 5653 5649 5645 5646 5649 5649 5651 5651 5652 5655 5657 5660 5663 5668 5672 5676 5680 5684 5687 5691 5693 5696 5699 5702 5705 5707 5707 5708 5707 5707 5708 5710 5710 5711 5711 5713 5712
5683 5680 5675 5671 5668 5666 5662 5658 5653 5653 5656 5657 5657 5658 5659 5662 5664 5666 5670 5673 5676 5679 5682 5686 5690 5693 5695 5698 5700 5703 5705 5706 5706 5705 5705 5705 5706 5706 5707 5709 5709 5710 5709
5685 5682 5679 5674 5672 5670 5668 5665 5664 5662 5662 5661 5662 5663 5664 5666 5668 5670 5673 5676 5679 5683 5685 5688 5692 5694 5696 5699 5700 5702 5703 5704 5704 5703 5703 5703 5702 5702 5705 5706 5707 5707 5706
5685 5683 5681 5678 5675 5673 5673 5672 5670 5669 5667 5666 5667 5668 5668 5670 5671 5673 5676 5679 5681 5684 5686 5689 5692 5695 5697 5698 5699 5700 5701 5702 5701 5700 5699 5700 5701 5700 5702 5702 5703 5702 5700
5685 5682 5681 5680 5678 5676 5673 5673 5674 5672 5671 5672 5670 5670 5671 5672 5675 5676 5678 5679 5682 5685 5687 5690 5692 5694 5696 5697 5697 5697 5698 5697 5697 5697 5697 5697 5698 5699 5699 5698 5697 5696 5694
5683 5682 5681 5681 5680 5678 5677 5675 5674 5675 5674 5673 5674 5673 5674 5675 5676 5676 5678 5680 5683 5686 5688 5690 5691 5692 5694 5694 5696 5696 5695 5694 5693 5693 5694 5695 5694 5695 5694 5693 5691 5690 5688
5681 5681 5680 5679 5680 5679 5678 5677 5677 5676 5675 5674 5674 5674 5674 5674 5675 5677 5679 5681 5683 5685 5688 5689 5690 5691 5692 5692 5692 5693 5692 5692 5691 5692 5692 5691 5691 5690 5689 5687 5686 5684 5681
5677 5679 5678 5678 5678 5678 5678 5679 5679 5678 5677 5676 5675 5675 5676 5676 5676 5677 5679 5682 5683 5684 5686 5687 5688 5688 5688 5688 5688 5689 5689 5689 5689 5688 5687 5686 5686 5684 5682 5680 5677 5675 5671
5673 5675 5676 5675 5676 5677 5677 5677 5678 5678 5678 5677 5678 5678 5678 5678 5679 5680 5681 5681 5682 5683 5685 5686 5687 5687 5688 5688 5686 5687 5687 5686 5685 5684 5683 5682 5680 5678 5675 5672 5668 5664 5660
5668 5669 5671 5673 5673 5674 5675 5675 5675 5676 5677 5677 5677 5677 5678 5679 5680 5681 5682 5682 5683 5684 5685 5685 5685 5685 5686 5684 5684 5684 5682 5681 5679 5678 5677 5675 5672 5668 5665 5661 5657 5653 5649
5662 5663 5666 5667 5670 5672 5672 5673 5674 5674 5674 5675 5676 5677 5677 5677 5678 5679 5680 5681 5682 5682 5683 5683 5682 5682 5680 5679 5679 5678 5677 5676 5674 5671 5669 5666 5663 5659 5655 5651 5647 5643 5639
5656 5657 5661 5662 5664 5666 5669 5669 5669 5671 5671 5672 5672 5673 5673 5674 5675 5676 5677 5678 5678 5679 5679 5678 5678 5677 5676 5674 5673 5671 5670 5668 5666 5663 5660 5657 5654 5650 5645 5641 5636 5632 5628
5649 5651 5655 5658 5659 5660 5662 5664 5666 5666 5667 5668 5669 5670 5671 5671 5672 5672 5673 5673 5674 5673 5672 5672 5671 5670 5669 5668 5666 5665 5663 5661 5659 5655 5652 5648 5644 5640 5635 5631 5626 5622 5617
5643 5645 5647 5651 5653 5654 5655 5657 5660 5661 5662 5663 5665 5665 5666 5666 5666 5667 5667 5667 5668 5667 5667 5666 5666 5664 5663 5663 5661 5659 5656 5653 5650 5646 5643 5639 5635 5631 5626 5621 5616 5611 5606
5636 5639 5640 5644 5647 5649 5649 5650 5653 5654 5655 5656 5657 5658 5659 5660 5660 5661 5661 5662 5662 5661 5662 5661 5660 5659 5657 5656 5654 5651 5648 5644 5641 5637 5633 5629 5625 5620 5615 5610 5605 5599 5594
5628 5633 5633 5636 5640 5642 5644 5646 5648 5649 5650 5650 5651 5652 5652 5654 5654 5654 5655 5655 5655 5655 5654 5654 5653 5653 5651 5649 5647 5644 5641 5636 5632 5628 5624 5620 5615 5610 5604 5598 5591 5585 5579
5620 5624 5626 5628 5631 5634 5636 5638 5640 5642 5643 5645 5645 5647 5648 5648 5649 5649 5649 5648 5648 5648 5648 5647 5646 5644 5642 5640 5638 5634 5630 5627 5622 5618 5613 5609 5605 5598 5592 5585 5578 5571 5563
5610 5614 5617 5620 5624 5627 5629 5631 5632 5633 5634 5635 5637 5638 5640 5641 5642 5643 5643 5642 5641 5640 5639 5638 5636 5634 5633 5630 5627 5623 5620 5616 5612 5608 5603 5598 5591 5585 5579 5571 5564 5557 5550
5599 5604 5607 5611 5615 5618 5619 5622 5624 5625 5627 5627 5628 5629 5631 5633 5633 5634 5634 5633 5633 5632 5631 5630 5627 5624 5622 5619 5616 5613 5611 5607 5602 5597 5591 5584 5578 5572 5565 5557 5550 5543 5536
5589 5594 5597 5601 5604 5608 5610 5611 5613 5616 5618 5619 5620 5620 5621 5623 5625 5625 5623 5623 5623 5622 5621 5619 5618 5616 5612 5611 5607 5604 5600 5595 5590 5585 5579 5572 5565 5558 5551 5545 5538 5531 5523
5578 5583 5586 5589 5593 5596 5599 5603 5605 5607 5608 5610 5611 5612 5613 5613 5614 5614 5614 5614 5613 5612 5611 5610 5607 5605 5603 5600 5596 5592 5588 5583 5578 5572 5565 5559 5553 5545 5538 5531 5524 5518 5510
5567 5571 5575 5578 5581 5584 5588 5591 5594 5596 5599 5601 5603 5604 5604 5605 5606 5605 5605 5605 5604 5603 5602 5600 5599 5595 5593 5589 5586 5582 5578 5572 5565 5559 5554 5547 5541 5533 5526 5519 5512 5505 5498
5555 5559 5563 5567 5569 5573 5576 5580 5582 5585 5588 5590 5592 5593 5594 5594 5595 5595 5595 5594 5593 5592 5591 5590 5589 5586 5582 5579 5575 5570 5565 5559 5553 5547 5541 5535 5528 5521 5514 5507 5501 5495 5488
5543 5547 5550 5553 5557 5561 5564 5568 5571 5574 5577 5579 5581 5582 5583 5584 5585 5584 5584 5584 5583 5582 5581 5579 5578 5575 5571 5568 5563 5558 5553 5548 5542 5535 5528 5522 5516 5509 5502 5496 5490 5484 5478